Tracking 18942 objects as of 17-Jan-2018
HD Live streaming from Space Station
objects crossing your sky now

AAU CUBESAT

Track AAU CUBESAT now!
10-day predictions
AAU CUBESAT is classified as:


NORAD ID: 27846
Int'l Code: 2003-031G
Perigee: 817.9 km
Apogee: 832.6 km
Inclination: 98.7 °
Period: 101.3 minutes
Semi major axis: 7196 km
RCS: 0.009 m2 (small)
Launch date: June 30, 2003
Source: Denmark (DEN)
Launch site: PLESETSK MISSILE AND SPACE COMPLEX (PKMTR)
Uplink (MHz):
Downlink (MHz): 437.450
Beacon (MHz): 437.450
Mode: 9600bps GMSK
Call sign:
Status: Inactive

aabbcc
Your satellite tracking list
Your tracking list is empty




NASA's NSSDC Master Catalog

Two Line Element Set (TLE):
1 27846U 03031G   18015.72497507  .00000037  00000-0  36448-4 0  9999
2 27846  98.6828  25.2904 0010228  69.1901 291.0372 14.22147639754673
Source of the keplerian elements: AFSPC